Weather in Vysokje Tatry

Slovakia     49°08′25″N   20°13′25″E
temp.,
°C
wind,
m/s
gust,
m/s
humid.,
%
clouds,
%
prec.,
mm/h
press.,
hPa
HPBL,
m
20 january, thu
thu2001:00−5sw338618 0.0 101759
04:00−7wsw22946 0.0 101643
07:00−6wsw229074 0.0 101553
10:00−2w2876100 0.1 10121043
13:00−2w4126694 0.3 10111677
16:00−7wnw5138174 2.1 10141552
19:00−9wnw4118791 2.2 10161121
22:00−9w388892 0.1 1017792
21 january, fri
fri2101:00−10w249099 0.2 1018135
04:00−9nw2695100 0.6 1018697
07:00−10nw499088 2.6 10201110
10:00−9wnw498079 0.1 1021952
13:00−7wnw4982100 0.6 10191265
16:00−9wnw379390 0.6 1020749
19:00−10wnw489174 1.1 1021696
22:00−11wnw379277 0.2 1022412
22 january, sat
sat2201:00−9nw3792100 1.1 1020864
04:00−9nw3995100 2.5 10181124
07:00−8nnw4995100 4.4 10191044
10:00−8nnw498899 0.6 10221158
13:00−8nw4108887 1.4 10231149
16:00−8nw489479 0.8 1025770
19:00−9nw489478 1.2 1027731
22:00−10nw479377 0.3 1028491
23 january, sun
sun2301:00−11nw379480 0.6 1028432
04:00−10nw479377 0.2 1028467
07:00−10nw499290 0.5 1028677
10:00−8nnw488984 0.3 1029826
13:00−7nnw478899 0.6 1029878
16:00−9nnw379582 0.4 1031573
19:00−10nw369576 0.7 1033208
22:00−13wnw239866 0.1 103539
24 january, mon
mon2401:00−13wnw249981 0.1 103661
04:00−14wnw239875 0.0 103743
07:00−15w219751 0.0 103815
10:00−8n11747 0.0 1036164
13:00−6ene01665 0.0 1034408
16:00−11w119431 0.0 103610
19:00−11wsw218784 0.0 103612
22:00−10wsw227798 0.0 103515